Regional Weather Roundup
Issued by NWS

Home | Current Version | Previous Version | Graphics & Text | Print | Product List | Glossary On
Versions: 1 2 3 4 5 6 7 8 9 10 11 12 13 14 15 16 17 18 19 20 21 22 23 24 25 26 27 28 29 30 31 32 33 34 35 36 37 38 39 40 41 42 43 44 45 46 47 48 49 50
000
ASUS43 KBIS 011859
RWRND

NORTH DAKOTA REGIONAL WEATHER ROUNDUP
NATIONAL WEATHER SERVICE BISMARCK ND
200 PM CDT WED OCT 01 2014

NOTE: "FAIR" INDICATES FEW OR NO CLOUDS BELOW 12,000 FEET WITH NO
SIGNIFICANT WEATHER AND/OR OBSTRUCTIONS TO VISIBILITY.


NDZ001>003-009>011-017-012000-
NORTHWEST NORTH DAKOTA

CITY           SKY/WX    TMP DP  RH WIND       PRES   REMARKS
WILLISTON      CLOUDY    57  47  69 NW21G26   29.74R
MINOT          CLOUDY    59  48  67 W21G29    29.64R
MINOT AFB      CLOUDY    59  52  77 NW22G28   29.62S
$$

NDZ018>021-031>035-040>046-012000-
SOUTHWEST NORTH DAKOTA

CITY           SKY/WX    TMP DP  RH WIND       PRES   REMARKS
BISMARCK       CLOUDY    60  49  66 W13G23    29.73S
DICKINSON      CLOUDY    54  47  77 W16       29.76S
GARRISON         N/A     60  50  69 W21G28    29.68S
HETTINGER ARPT CLOUDY    51  46  83 W21       29.82S
$$

NDZ004>008-012>016-024-026-027-054-012000-
NORTHEAST NORTH DAKOTA

CITY           SKY/WX    TMP DP  RH WIND       PRES   REMARKS
GRAND FORKS    PTSUNNY   66  52  60 SW18G25   29.58S
DEVILS LAKE    CLOUDY    61  50  67 W20       29.58S
$$

NDZ022-023-025-028>030-036>039-047>053-012000-
SOUTHEAST NORTH DAKOTA

CITY           SKY/WX    TMP DP  RH WIND       PRES   REMARKS
FARGO          PTSUNNY   69  53  56 SW17      29.63S
JAMESTOWN      CLOUDY    61  50  67 W21       29.66S
$$



USA.gov is the U.S. government's official web portal to all federal, state and local government web resources and services.